Regional Weather Roundup
Issued by NWS State College, PA

Home | Current Version | Previous Version | Text Only | Print | Product List | Glossary On
Versions: 1 2 3 4 5 6 7 8 9 10 11 12 13 14 15 16 17 18 19 20 21 22 23 24 25 26 27 28 29 30 31 32 33 34 35 36 37 38 39 40 41 42 43 44 45 46 47 48 49 50
000
ASUS41 KCTP 010610
RWRCTP

REGIONAL WEATHER ROUNDUP
NATIONAL WEATHER SERVICE STATE COLLEGE PA
200 AM EDT WED JUL 01 2015

Note: "fair" indicates few or no clouds below 12,000 feet with no
significant weather and/or obstructions to visibility.

* = STATION THAT DOES NOT REPORT PRECIPITATION /E.G. RAIN...SNOW...ETC/
    THUNDER OR FOG.

PAZ002>004-007>009-013>016-020>023-029>032-010700-
WESTERN PENNSYLVANIA

CITY           SKY/WX    TMP DP  RH WIND       PRES   REMARKS
ERIE           PTCLDY    64  60  87 S6        29.76
MEADVILLE      CLOUDY    63  61  93 S7        29.81  FOG
FRANKLIN*      CLOUDY    61  57  88 SW8       29.83F
NEW CASTLE     CLOUDY    64  64 100 CALM      29.83R
BEAVER COUNTY  NOT AVBL
BUTLER*        CLOUDY    61  61 100 SW7       29.85F
PITTSBURGH INT MOCLDY    62  58  86 S6        29.83
PITTSBURGH     PTCLDY    60  56  86 S9        29.83F
INDIANA*       CLOUDY    61  61 100 SW5       29.88F
LATROBE        NOT AVBL
WASHINGTON CO* NOT AVBL
$$

PAZ004>006-010>012-017>019-024>028-033>037-041-042-045-046-049>053-010700-
CENTRAL PENNSYLVANIA

CITY           SKY/WX    TMP DP  RH WIND       PRES   REMARKS
BRADFORD       CLOUDY    60  58  92 W3        29.82S
DUBOIS         CLOUDY    62  59  90 SW6       29.83  FOG
CLEARFIELD     CLOUDY    61  59  93 S6        29.84F
JOHNSTOWN      MOCLDY    58  55  90 SW5       29.87S
ALTOONA        MOCLDY    62  57  83 W7        29.84
STATE COLLEGE  MOCLDY    62  59  90 W7        29.83F
WILLIAMSPORT   CLOUDY    65  63  93 CALM      29.78S
SELINSGROVE    CLOUDY    67  64  90 CALM      29.80S
FT INDIANTOWN  CLOUDY    69  69  98 SW5       29.79F FOG
CAPITAL CITY   CLOUDY    69  63  81 W6        29.78F
HARRISBURG     CLOUDY    69  65  86 CALM      29.78S
YORK           CLOUDY    66  64  93 CALM      29.81S
$$

PAZ038>040-043-044-047-048-054-055-060>062-067>071-010700-
EASTERN PENNSYLVANIA

CITY           SKY/WX    TMP DP  RH WIND       PRES   REMARKS
SCRANTON       LGT RAIN  65  62  90 CALM      29.79F
MOUNT POCONO   TSTM      65  63  93 VRB6      29.85S FOG
ALLENTOWN      CLOUDY    71  68  90 W3        29.78
QUAKERTOWN*    CLOUDY    68  68 100 CALM      29.80F
READING        TSTM      71  66  84 S10       29.78S
LANCASTER      CLOUDY    67  63  87 W6        29.78F
COATESVILLE    CLOUDY    68  66  94 W7G18     29.84R
POTTSTOWN      CLOUDY    71  70  96 VRB7      29.82
BLUE BELL      CLOUDY    72  72 100 S3        29.77F
DOYLESTOWN     CLOUDY    70  70 100 S5        29.77
WILLOW GROVE   NOT AVBL
NORTH PHILA    CLOUDY    73  68  84 CALM      29.79  HAZE
PHILADELPHIA   CLOUDY    74  71  91 CALM      29.78F
$$


USA.gov is the U.S. government's official web portal to all federal, state and local government web resources and services.